Time,TemperatureF,DewpointF,PressureIn,WindDirection,WindDirectionDegrees,WindSpeedMPH,WindSpeedGustMPH,Humidity,HourlyPrecipIn,Conditions,Clouds,dailyrainin,SoftwareType,DateUTC
2013-01-29 00:00:00,68.9,59.9,29.53,South,189,2.0,21.0,73,0.00,,---,0.00,VWS V14.01,2013-01-29 06:00:00,
2013-01-29 00:01:00,69.1,59.7,29.57,SW,219,12.0,21.0,72,0.00,,---,0.00,VWS V14.01,2013-01-29 06:01:00,
2013-01-29 00:06:00,69.1,59.7,29.57,WSW,244,5.0,21.0,72,0.00,,---,0.00,VWS V14.01,2013-01-29 06:06:00,
2013-01-29 00:11:00,69.3,59.9,29.57,SSW,200,13.0,23.0,72,0.00,,---,0.00,VWS V14.01,2013-01-29 06:11:00,
2013-01-29 00:16:00,69.3,59.5,29.57,SW,225,7.0,23.0,71,0.00,,---,0.00,VWS V14.01,2013-01-29 06:16:00,
2013-01-29 00:21:00,69.3,59.5,29.55,SSW,197,5.0,23.0,71,0.00,,---,0.00,VWS V14.01,2013-01-29 06:21:00,
2013-01-29 00:26:00,69.4,60.0,29.55,SSE,147,12.0,23.0,72,0.00,,---,0.00,VWS V14.01,2013-01-29 06:26:00,
2013-01-29 00:30:00,68.6,59.6,29.52,SW,227,3.0,22.0,73,0.00,,---,0.00,VWS V14.01,2013-01-29 06:30:00,
2013-01-29 00:31:00,69.4,59.6,29.55,South,187,12.0,23.0,71,0.00,,---,0.00,VWS V14.01,2013-01-29 06:31:00,
2013-01-29 00:36:00,69.4,59.6,29.55,ESE,121,10.0,14.0,71,0.00,,---,0.00,VWS V14.01,2013-01-29 06:36:00,
2013-01-29 00:41:00,69.3,59.5,29.55,North,360,13.0,16.0,71,0.00,,---,0.00,VWS V14.01,2013-01-29 06:41:00,
2013-01-29 00:46:00,69.3,59.9,29.55,SW,227,5.0,21.0,72,0.00,,---,0.00,VWS V14.01,2013-01-29 06:46:00,
2013-01-29 00:51:00,69.1,59.7,29.54,WSW,239,9.0,21.0,72,0.00,,---,0.00,VWS V14.01,2013-01-29 06:51:00,
2013-01-29 00:56:00,69.1,59.7,29.54,South,177,14.0,21.0,72,0.00,,---,0.00,VWS V14.01,2013-01-29 06:56:00,
2013-01-29 01:00:00,68.3,58.5,29.52,SSW,200,2.0,27.0,71,0.00,,---,0.00,VWS V14.01,2013-01-29 07:00:00,
2013-01-29 01:01:00,69.1,60.1,29.54,South,181,2.0,21.0,73,0.00,,---,0.00,VWS V14.01,2013-01-29 07:01:00,
2013-01-29 01:06:00,68.9,59.9,29.53,South,180,3.0,11.0,73,0.00,,---,0.00,VWS V14.01,2013-01-29 07:06:00,
2013-01-29 01:11:00,68.8,59.8,29.53,SSE,161,4.0,22.0,73,0.00,,---,0.00,VWS V14.01,2013-01-29 07:11:00,
2013-01-29 01:16:00,68.8,59.8,29.53,WSW,241,4.0,22.0,73,0.00,,---,0.00,VWS V14.01,2013-01-29 07:16:00,
2013-01-29 01:21:00,68.8,60.2,29.52,South,183,11.0,22.0,74,0.00,,---,0.00,VWS V14.01,2013-01-29 07:21:00,
2013-01-29 01:26:00,68.6,60.0,29.52,SSW,201,7.0,22.0,74,0.00,,---,0.00,VWS V14.01,2013-01-29 07:26:00,
2013-01-29 01:30:00,68.1,59.9,29.52,SW,227,4.0,18.0,75,0.00,,---,0.00,VWS V14.01,2013-01-29 07:30:00,
2013-01-29 01:31:00,68.6,60.0,29.52,WSW,246,3.0,22.0,74,0.00,,---,0.00,VWS V14.01,2013-01-29 07:31:00,
2013-01-29 01:36:00,68.4,58.6,29.52,South,181,13.0,20.0,71,0.00,,---,0.00,VWS V14.01,2013-01-29 07:36:00,
2013-01-29 01:41:00,68.4,58.2,29.52,SSW,208,7.0,20.0,70,0.00,,---,0.00,VWS V14.01,2013-01-29 07:41:00,
2013-01-29 01:46:00,68.3,56.9,29.52,WSW,240,15.0,20.0,67,0.00,,---,0.00,VWS V14.01,2013-01-29 07:46:00,
2013-01-29 01:51:00,68.4,57.0,29.52,SW,214,10.0,20.0,67,0.00,,---,0.00,VWS V14.01,2013-01-29 07:51:00,
2013-01-29 01:56:00,68.6,57.6,29.52,North,360,3.0,27.0,68,0.00,,---,0.00,VWS V14.01,2013-01-29 07:56:00,
2013-01-29 02:00:00,68.4,59.8,29.52,SW,233,4.0,18.0,74,0.00,,---,0.00,VWS V14.01,2013-01-29 08:00:00,
2013-01-29 02:01:00,68.4,58.2,29.52,WSW,239,5.0,27.0,70,0.00,,---,0.00,VWS V14.01,2013-01-29 08:01:00,
2013-01-29 02:06:00,68.3,58.5,29.52,SE,138,8.0,11.0,71,0.00,,---,0.00,VWS V14.01,2013-01-29 08:06:00,
2013-01-29 02:11:00,68.1,59.1,29.52,SW,221,17.0,18.0,73,0.00,,---,0.00,VWS V14.01,2013-01-29 08:11:00,
2013-01-29 02:16:00,68.1,59.5,29.52,South,169,3.0,18.0,74,0.00,,---,0.00,VWS V14.01,2013-01-29 08:16:00,
2013-01-29 02:21:00,68.1,59.9,29.52,SSE,163,1.0,18.0,75,0.00,,---,0.00,VWS V14.01,2013-01-29 08:21:00,
2013-01-29 02:26:00,68.1,59.9,29.52,SSW,203,0.0,18.0,75,0.00,,---,0.00,VWS V14.01,2013-01-29 08:26:00,
2013-01-29 02:30:00,68.8,59.8,29.52,South,186,6.0,21.0,73,0.00,,---,0.00,VWS V14.01,2013-01-29 08:30:00,
2013-01-29 02:31:00,68.1,59.9,29.52,SSW,193,2.0,18.0,75,0.00,,---,0.00,VWS V14.01,2013-01-29 08:31:00,
2013-01-29 02:36:00,68.1,59.9,29.52,SW,224,9.0,12.0,75,0.00,,---,0.00,VWS V14.01,2013-01-29 08:36:00,
2013-01-29 02:41:00,68.1,59.9,29.52,SW,216,7.0,17.0,75,0.00,,---,0.00,VWS V14.01,2013-01-29 08:41:00,
2013-01-29 02:46:00,68.1,59.9,29.52,SSW,211,4.0,18.0,75,0.00,,---,0.00,VWS V14.01,2013-01-29 08:46:00,
2013-01-29 02:50:00,68.3,59.7,29.52,SSW,198,9.0,18.0,74,0.00,,---,0.00,VWS V14.01,2013-01-29 08:50:00,
2013-01-29 02:55:00,68.3,59.7,29.52,South,190,5.0,18.0,74,0.00,,---,0.00,VWS V14.01,2013-01-29 08:55:00,
2013-01-29 03:00:00,68.3,59.7,29.52,SW,231,14.0,18.0,74,0.00,,---,0.00,VWS V14.01,2013-01-29 09:00:00,
2013-01-29 03:05:00,68.4,59.8,29.52,South,190,7.0,14.0,74,0.00,,---,0.00,VWS V14.01,2013-01-29 09:05:00,
2013-01-29 03:10:00,68.6,59.6,29.52,SSW,211,3.0,21.0,73,0.00,,---,0.00,VWS V14.01,2013-01-29 09:10:00,
2013-01-29 03:15:00,68.8,59.8,29.52,SW,225,2.0,21.0,73,0.00,,---,0.00,VWS V14.01,2013-01-29 09:15:00,
2013-01-29 03:20:00,68.8,59.8,29.52,SW,217,3.0,21.0,73,0.00,,---,0.00,VWS V14.01,2013-01-29 09:20:00,
2013-01-29 03:25:00,68.8,59.8,29.52,SW,233,15.0,21.0,73,0.00,,---,0.00,VWS V14.01,2013-01-29 09:25:00,
2013-01-29 03:30:00,68.8,59.8,29.52,South,180,3.0,21.0,73,0.00,,---,0.00,VWS V14.01,2013-01-29 09:30:00,
2013-01-29 03:35:00,68.8,59.4,29.52,SW,214,5.0,18.0,72,0.00,,---,0.00,VWS V14.01,2013-01-29 09:35:00,
2013-01-29 03:40:00,68.8,59.4,29.52,SW,227,7.0,20.0,72,0.00,,---,0.00,VWS V14.01,2013-01-29 09:40:00,
2013-01-29 03:45:00,68.8,59.8,29.52,SW,231,17.0,23.0,73,0.00,,---,0.00,VWS V14.01,2013-01-29 09:45:00,
2013-01-29 03:50:00,68.8,59.4,29.52,West,259,6.0,23.0,72,0.00,,---,0.00,VWS V14.01,2013-01-29 09:50:00,
2013-01-29 03:55:00,68.6,59.2,29.52,SW,222,3.0,23.0,72,0.00,,---,0.00,VWS V14.01,2013-01-29 09:55:00,
2013-01-29 04:00:00,68.6,59.6,29.52,SW,234,5.0,23.0,73,0.00,,---,0.00,VWS V14.01,2013-01-29 10:00:00,
2013-01-29 04:05:00,68.4,59.4,29.51,SSW,209,9.0,22.0,73,0.00,,---,0.00,VWS V14.01,2013-01-29 10:05:00,
2013-01-29 04:10:00,68.3,59.3,29.51,SSW,208,7.0,22.0,73,0.00,,---,0.00,VWS V14.01,2013-01-29 10:10:00,
2013-01-29 04:15:00,68.3,59.3,29.51,South,187,4.0,22.0,73,0.00,,---,0.00,VWS V14.01,2013-01-29 10:15:00,
2013-01-29 04:20:00,68.1,59.1,29.51,SW,234,21.0,22.0,73,0.00,,---,0.00,VWS V14.01,2013-01-29 10:20:00,
2013-01-29 04:25:00,68.1,59.5,29.51,SSW,209,6.0,22.0,74,0.00,,---,0.00,VWS V14.01,2013-01-29 10:25:00,
2013-01-29 04:30:00,68.1,59.5,29.51,South,170,6.0,22.0,74,0.00,,---,0.00,VWS V14.01,2013-01-29 10:30:00,
2013-01-29 04:35:00,67.9,59.3,29.51,SSW,213,6.0,20.0,74,0.00,,---,0.00,VWS V14.01,2013-01-29 10:35:00,
2013-01-29 04:40:00,67.9,59.3,29.51,South,173,3.0,20.0,74,0.00,,---,0.00,VWS V14.01,2013-01-29 10:40:00,
2013-01-29 04:45:00,67.8,59.2,29.51,SW,236,9.0,20.0,74,0.00,,---,0.00,VWS V14.01,2013-01-29 10:45:00,
2013-01-29 04:50:00,67.6,59.4,29.51,SSW,213,2.0,20.0,75,0.00,,---,0.00,VWS V14.01,2013-01-29 10:50:00,
2013-01-29 04:55:00,67.6,59.0,29.51,South,169,10.0,20.0,74,0.00,,---,0.00,VWS V14.01,2013-01-29 10:55:00,
2013-01-29 05:00:00,67.6,59.0,29.51,SSW,209,6.0,20.0,74,0.00,,---,0.00,VWS V14.01,2013-01-29 11:00:00,
2013-01-29 05:05:00,67.6,59.0,29.51,SW,219,7.0,18.0,74,0.00,,---,0.00,VWS V14.01,2013-01-29 11:05:00,
2013-01-29 05:10:00,67.4,58.8,29.51,SSW,209,10.0,18.0,74,0.00,,---,0.00,VWS V14.01,2013-01-29 11:10:00,
2013-01-29 05:15:00,67.4,58.8,29.51,SSW,212,15.0,21.0,74,0.00,,---,0.00,VWS V14.01,2013-01-29 11:15:00,
2013-01-29 05:20:00,67.4,58.8,29.51,SSW,197,13.0,21.0,74,0.00,,---,0.00,VWS V14.01,2013-01-29 11:20:00,
2013-01-29 05:25:00,67.3,58.7,29.51,SW,220,6.0,21.0,74,0.00,,---,0.00,VWS V14.01,2013-01-29 11:25:00,
2013-01-29 05:30:00,67.3,58.7,29.51,SW,229,6.0,21.0,74,0.00,,---,0.00,VWS V14.01,2013-01-29 11:30:00,
2013-01-29 05:35:00,67.3,58.7,29.51,SW,221,10.0,16.0,74,0.00,,---,0.00,VWS V14.01,2013-01-29 11:35:00,
2013-01-29 05:40:00,67.1,58.9,29.51,SSW,196,3.0,21.0,75,0.00,,---,0.00,VWS V14.01,2013-01-29 11:40:00,
2013-01-29 05:45:00,67.1,58.5,29.51,South,185,9.0,21.0,74,0.00,,---,0.00,VWS V14.01,2013-01-29 11:45:00,
2013-01-29 05:50:00,67.1,58.5,29.51,SSW,196,4.0,21.0,74,0.00,,---,0.00,VWS V14.01,2013-01-29 11:50:00,
2013-01-29 05:55:00,66.9,58.7,29.51,SW,230,3.0,21.0,75,0.00,,---,0.00,VWS V14.01,2013-01-29 11:55:00,
2013-01-29 06:00:00,66.8,58.6,29.51,WSW,253,4.0,21.0,75,0.00,,---,0.00,VWS V14.01,2013-01-29 12:00:00,
2013-01-29 06:05:00,66.8,58.6,29.50,SSW,194,6.0,6.0,75,0.00,,---,0.00,VWS V14.01,2013-01-29 12:05:00,
2013-01-29 06:10:00,66.6,58.4,29.50,SW,221,10.0,17.0,75,0.00,,---,0.00,VWS V14.01,2013-01-29 12:10:00,
2013-01-29 06:15:00,66.6,58.4,29.50,SSW,206,7.0,17.0,75,0.00,,---,0.00,VWS V14.01,2013-01-29 12:15:00,
2013-01-29 06:20:00,66.4,58.2,29.49,SW,216,10.0,17.0,75,0.00,,---,0.00,VWS V14.01,2013-01-29 12:20:00,
2013-01-29 06:25:00,66.4,59.3,29.49,SW,225,3.0,17.0,78,0.00,,---,0.00,VWS V14.01,2013-01-29 12:25:00,
2013-01-29 06:30:00,66.3,58.5,29.49,SW,218,5.0,17.0,76,0.00,,---,0.00,VWS V14.01,2013-01-29 12:30:00,
2013-01-29 06:35:00,66.1,58.7,29.50,SSW,206,2.0,13.0,77,0.00,,---,0.00,VWS V14.01,2013-01-29 12:35:00,
2013-01-29 06:40:00,66.1,58.7,29.50,SW,233,5.0,13.0,77,0.00,,---,0.00,VWS V14.01,2013-01-29 12:40:00,
2013-01-29 06:45:00,66.0,58.6,29.50,SW,232,6.0,13.0,77,0.00,,---,0.00,VWS V14.01,2013-01-29 12:45:00,
2013-01-29 06:50:00,66.0,58.6,29.49,SE,141,0.0,13.0,77,0.00,,---,0.00,VWS V14.01,2013-01-29 12:50:00,
2013-01-29 06:55:00,65.8,58.4,29.49,SSW,209,3.0,13.0,77,0.00,,---,0.00,VWS V14.01,2013-01-29 12:55:00,
2013-01-29 07:00:00,65.8,58.4,29.49,South,187,1.0,14.0,77,0.00,,---,0.00,VWS V14.01,2013-01-29 13:00:00,
2013-01-29 07:05:00,65.6,58.2,29.49,SSW,200,3.0,7.0,77,0.00,,---,0.00,VWS V14.01,2013-01-29 13:05:00,
2013-01-29 07:10:00,65.6,58.2,29.49,South,186,2.0,12.0,77,0.00,,---,0.00,VWS V14.01,2013-01-29 13:10:00,
2013-01-29 07:15:00,65.6,58.6,29.49,WSW,238,1.0,12.0,78,0.00,,---,0.00,VWS V14.01,2013-01-29 13:15:00,
2013-01-29 07:20:00,65.5,58.5,29.48,SSW,205,4.0,12.0,78,0.00,,---,0.00,VWS V14.01,2013-01-29 13:20:00,
2013-01-29 07:25:00,65.5,58.5,29.48,SSW,206,3.0,12.0,78,0.00,,---,0.00,VWS V14.01,2013-01-29 13:25:00,
2013-01-29 07:30:00,65.3,58.3,29.48,SSW,197,2.0,12.0,78,0.00,,---,0.00,VWS V14.01,2013-01-29 13:30:00,
2013-01-29 07:35:00,65.3,58.3,29.48,SSW,209,3.0,6.0,78,0.00,,---,0.00,VWS V14.01,2013-01-29 13:35:00,
2013-01-29 07:40:00,63.9,54.3,29.48,NNW,338,11.0,18.0,71,0.00,,---,0.00,VWS V14.01,2013-01-29 13:40:00,
2013-01-29 07:45:00,61.0,51.5,29.48,WNW,301,11.0,18.0,71,0.00,,---,0.00,VWS V14.01,2013-01-29 13:45:00,
2013-01-29 07:50:00,58.1,49.1,29.51,NNW,339,5.0,18.0,72,0.00,,---,0.00,VWS V14.01,2013-01-29 13:50:00,
2013-01-29 07:55:00,56.6,48.8,29.51,WNW,288,1.0,18.0,75,0.00,,---,0.00,VWS V14.01,2013-01-29 13:55:00,
2013-01-29 08:00:00,55.3,47.9,29.51,NW,306,4.0,18.0,76,0.00,,---,0.00,VWS V14.01,2013-01-29 14:00:00,
2013-01-29 08:05:00,53.8,47.1,29.53,WNW,297,1.0,4.0,78,0.00,,---,0.00,VWS V14.01,2013-01-29 14:05:00,
2013-01-29 08:10:00,52.5,46.2,29.53,NNW,332,3.0,12.0,79,0.00,,---,0.00,VWS V14.01,2013-01-29 14:10:00,
2013-01-29 08:15:00,51.3,45.7,29.53,North,360,10.0,25.0,81,0.01,,---,0.01,VWS V14.01,2013-01-29 14:15:00,
2013-01-29 08:20:00,50.4,45.8,29.53,NW,317,3.0,25.0,84,0.02,,---,0.02,VWS V14.01,2013-01-29 14:20:00,
2013-01-29 08:25:00,49.6,45.3,29.53,NW,317,3.0,25.0,85,0.03,,---,0.03,VWS V14.01,2013-01-29 14:25:00,
2013-01-29 08:30:00,49.1,45.4,29.53,NNW,342,1.0,25.0,87,0.04,,---,0.04,VWS V14.01,2013-01-29 14:30:00,
2013-01-29 08:35:00,48.8,45.4,29.55,WNW,294,0.0,2.0,88,0.04,,---,0.04,VWS V14.01,2013-01-29 14:35:00,
2013-01-29 08:40:00,48.6,45.5,29.55,WNW,302,5.0,6.0,89,0.05,,---,0.05,VWS V14.01,2013-01-29 14:40:00,
2013-01-29 08:45:00,48.3,45.2,29.55,West,281,1.0,6.0,89,0.06,,---,0.06,VWS V14.01,2013-01-29 14:45:00,
2013-01-29 08:50:00,48.2,45.4,29.58,WSW,251,0.0,6.0,90,0.07,,---,0.07,VWS V14.01,2013-01-29 14:50:00,
2013-01-29 08:55:00,47.9,45.1,29.58,NNW,327,0.0,10.0,90,0.08,,---,0.08,VWS V14.01,2013-01-29 14:55:00,
2013-01-29 09:00:00,47.3,44.5,29.58,West,259,2.0,12.0,90,0.09,,---,0.09,VWS V14.01,2013-01-29 15:00:00,
2013-01-29 09:05:00,47.1,44.6,29.61,West,261,1.0,3.0,91,0.11,,---,0.11,VWS V14.01,2013-01-29 15:05:00,
2013-01-29 09:10:00,47.0,44.5,29.61,SE,128,0.0,3.0,91,0.12,,---,0.12,VWS V14.01,2013-01-29 15:10:00,
2013-01-29 09:15:00,47.1,44.9,29.61,SW,232,0.0,3.0,92,0.14,,---,0.14,VWS V14.01,2013-01-29 15:15:00,
2013-01-29 09:20:00,46.7,44.2,29.61,West,271,1.0,8.0,91,0.16,,---,0.16,VWS V14.01,2013-01-29 15:20:00,
2013-01-29 09:25:00,46.5,44.3,29.61,ESE,119,0.0,8.0,92,0.18,,---,0.18,VWS V14.01,2013-01-29 15:25:00,
2013-01-29 09:30:00,46.5,44.3,29.61,WNW,303,4.0,9.0,92,0.20,,---,0.20,VWS V14.01,2013-01-29 15:30:00,
2013-01-29 09:35:00,46.2,44.0,29.61,NW,326,1.0,7.0,92,0.18,,---,0.22,VWS V14.01,2013-01-29 15:35:00,
2013-01-29 09:40:00,45.8,43.6,29.61,WNW,284,4.0,9.0,92,0.20,,---,0.24,VWS V14.01,2013-01-29 15:40:00,
2013-01-29 09:45:00,45.5,43.6,29.61,West,271,0.0,9.0,93,0.21,,---,0.25,VWS V14.01,2013-01-29 15:45:00,
2013-01-29 09:50:00,45.2,43.3,29.59,West,271,0.0,9.0,93,0.23,,---,0.27,VWS V14.01,2013-01-29 15:50:00,
2013-01-29 09:55:00,44.9,43.0,29.59,North,355,0.0,9.0,93,0.26,,---,0.30,VWS V14.01,2013-01-29 15:55:00,
2013-01-29 10:00:00,44.8,42.9,29.59,WNW,287,0.0,9.0,93,0.30,,---,0.34,VWS V14.01,2013-01-29 16:00:00,
2013-01-29 10:05:00,44.5,42.6,29.58,NW,311,2.0,7.0,93,0.25,,---,0.35,VWS V14.01,2013-01-29 16:05:00,
2013-01-29 10:10:00,44.3,42.7,29.58,NW,319,3.0,7.0,94,0.26,,---,0.36,VWS V14.01,2013-01-29 16:10:00,
2013-01-29 10:15:00,44.3,42.7,29.58,West,277,0.0,7.0,94,0.28,,---,0.38,VWS V14.01,2013-01-29 16:15:00,
2013-01-29 10:20:00,44.3,42.7,29.57,West,279,0.0,10.0,94,0.30,,---,0.40,VWS V14.01,2013-01-29 16:20:00,
2013-01-29 10:25:00,44.3,42.7,29.57,NNW,336,0.0,10.0,94,0.32,,---,0.42,VWS V14.01,2013-01-29 16:25:00,
2013-01-29 10:30:00,44.3,43.0,29.57,NE,42,1.0,10.0,95,0.33,,---,0.43,VWS V14.01,2013-01-29 16:30:00,
2013-01-29 10:35:00,44.5,43.2,29.58,East,82,0.0,2.0,95,0.24,,---,0.45,VWS V14.01,2013-01-29 16:35:00,
2013-01-29 10:40:00,44.5,43.2,29.58,ESE,120,0.0,3.0,95,0.27,,---,0.48,VWS V14.01,2013-01-29 16:40:00,
2013-01-29 10:45:00,44.6,43.3,29.58,ENE,64,0.0,3.0,95,0.29,,---,0.50,VWS V14.01,2013-01-29 16:45:00,
2013-01-29 10:50:00,44.6,43.3,29.59,SW,226,0.0,3.0,95,0.32,,---,0.53,VWS V14.01,2013-01-29 16:50:00,
2013-01-29 10:55:00,44.6,43.3,29.59,WSW,244,0.0,3.0,95,0.34,,---,0.55,VWS V14.01,2013-01-29 16:55:00,
2013-01-29 11:00:00,44.5,43.2,29.59,West,274,1.0,3.0,95,0.36,,---,0.57,VWS V14.01,2013-01-29 17:00:00,
2013-01-29 11:05:00,44.2,42.9,29.60,SSW,212,0.0,1.0,95,0.23,,---,0.58,VWS V14.01,2013-01-29 17:05:00,
2013-01-29 11:10:00,44.3,43.2,29.60,SSW,207,0.0,1.0,96,0.25,,---,0.60,VWS V14.01,2013-01-29 17:10:00,
2013-01-29 11:15:00,44.3,43.2,29.60,NE,34,0.0,2.0,96,0.27,,---,0.62,VWS V14.01,2013-01-29 17:15:00,
2013-01-29 11:20:00,44.3,43.2,29.56,NNE,28,5.0,5.0,96,0.28,,---,0.63,VWS V14.01,2013-01-29 17:20:00,
2013-01-29 11:25:00,44.3,43.2,29.56,NNE,12,7.0,7.0,96,0.30,,---,0.65,VWS V14.01,2013-01-29 17:25:00,
2013-01-29 11:30:00,44.3,43.2,29.56,NE,36,6.0,11.0,96,0.31,,---,0.66,VWS V14.01,2013-01-29 17:30:00,
2013-01-29 11:35:00,44.2,43.1,29.53,North,5,1.0,4.0,96,0.22,,---,0.66,VWS V14.01,2013-01-29 17:35:00,
2013-01-29 11:40:00,44.2,43.1,29.53,ENE,67,5.0,7.0,96,0.24,,---,0.68,VWS V14.01,2013-01-29 17:40:00,
2013-01-29 11:45:00,44.1,43.0,29.53,NE,39,3.0,11.0,96,0.24,,---,0.68,VWS V14.01,2013-01-29 17:45:00,
2013-01-29 11:50:00,43.9,42.8,29.52,NNW,327,4.0,11.0,96,0.24,,---,0.68,VWS V14.01,2013-01-29 17:50:00,
2013-01-29 11:55:00,43.9,42.8,29.52,North,5,5.0,11.0,96,0.24,,---,0.68,VWS V14.01,2013-01-29 17:55:00,
2013-01-29 12:00:00,43.9,42.8,29.52,NNW,329,5.0,11.0,96,0.24,,---,0.68,VWS V14.01,2013-01-29 18:00:00,
2013-01-29 12:05:00,44.1,43.0,29.52,NNW,344,2.0,9.0,96,0.11,,---,0.69,VWS V14.01,2013-01-29 18:05:00,
2013-01-29 12:10:00,43.9,42.8,29.52,West,274,4.0,9.0,96,0.11,,---,0.69,VWS V14.01,2013-01-29 18:10:00,
2013-01-29 12:15:00,43.8,42.7,29.52,SSW,205,1.0,9.0,96,0.12,,---,0.70,VWS V14.01,2013-01-29 18:15:00,
2013-01-29 12:20:00,43.9,42.8,29.52,WNW,302,1.0,9.0,96,0.13,,---,0.71,VWS V14.01,2013-01-29 18:20:00,
2013-01-29 12:25:00,43.8,42.7,29.52,West,272,1.0,9.0,96,0.14,,---,0.72,VWS V14.01,2013-01-29 18:25:00,
2013-01-29 12:30:00,43.6,42.5,29.52,NE,55,1.0,9.0,96,0.14,,---,0.72,VWS V14.01,2013-01-29 18:30:00,
2013-01-29 12:35:00,43.5,42.4,29.50,East,81,2.0,4.0,96,0.07,,---,0.73,VWS V14.01,2013-01-29 18:35:00,
2013-01-29 12:40:00,43.3,42.2,29.50,East,87,7.0,8.0,96,0.08,,---,0.74,VWS V14.01,2013-01-29 18:40:00,
2013-01-29 12:45:00,43.5,42.7,29.50,East,84,4.0,8.0,97,0.09,,---,0.75,VWS V14.01,2013-01-29 18:45:00,
2013-01-29 12:50:00,43.8,43.0,29.48,SE,129,2.0,12.0,97,0.10,,---,0.76,VWS V14.01,2013-01-29 18:50:00,
2013-01-29 12:55:00,43.8,43.0,29.48,NNE,28,1.0,12.0,97,0.10,,---,0.76,VWS V14.01,2013-01-29 18:55:00,
2013-01-29 13:00:00,43.6,42.8,29.48,ENE,76,6.0,12.0,97,0.10,,---,0.76,VWS V14.01,2013-01-29 19:00:00,
2013-01-29 13:05:00,43.5,42.7,29.45,NE,39,5.0,5.0,97,0.08,,---,0.76,VWS V14.01,2013-01-29 19:05:00,
2013-01-29 13:10:00,43.6,42.8,29.45,NE,51,4.0,7.0,97,0.08,,---,0.76,VWS V14.01,2013-01-29 19:10:00,
2013-01-29 13:15:00,43.5,42.7,29.45,ENE,67,1.0,7.0,97,0.08,,---,0.76,VWS V14.01,2013-01-29 19:15:00,
2013-01-29 13:20:00,43.6,42.8,29.45,NNW,342,7.0,10.0,97,0.08,,---,0.76,VWS V14.01,2013-01-29 19:20:00,
2013-01-29 13:25:00,43.6,42.8,29.45,WNW,290,2.0,10.0,97,0.08,,---,0.76,VWS V14.01,2013-01-29 19:25:00,
2013-01-29 13:30:00,43.8,43.0,29.45,WSW,237,1.0,12.0,97,0.08,,---,0.76,VWS V14.01,2013-01-29 19:30:00,
2013-01-29 13:35:00,43.8,43.0,29.48,SW,215,0.0,2.0,97,0.04,,---,0.77,VWS V14.01,2013-01-29 19:35:00,
2013-01-29 13:40:00,43.6,42.8,29.48,West,263,5.0,11.0,97,0.04,,---,0.77,VWS V14.01,2013-01-29 19:40:00,
2013-01-29 13:45:00,43.3,42.5,29.48,NNW,333,6.0,11.0,97,0.04,,---,0.77,VWS V14.01,2013-01-29 19:45:00,
2013-01-29 13:50:00,43.1,42.0,29.50,NNW,344,2.0,11.0,96,0.04,,---,0.77,VWS V14.01,2013-01-29 19:50:00,
2013-01-29 13:55:00,42.8,42.0,29.50,NNE,17,5.0,11.0,97,0.05,,---,0.78,VWS V14.01,2013-01-29 19:55:00,
2013-01-29 13:57:00,42.8,42.0,29.50,NE,51,5.0,11.0,97,0.05,,---,0.78,VWS V14.01,2013-01-29 19:57:00,
2013-01-29 14:00:00,40.5,39.5,29.45,NNE,13,7.0,17.0,96,0.05,,---,0.82,VWS V14.01,2013-01-29 20:00:00,
2013-01-29 14:02:00,42.8,42.0,29.50,NE,43,5.0,11.0,97,0.07,,---,0.80,VWS V14.01,2013-01-29 20:02:00,
2013-01-29 14:07:00,42.3,41.2,29.45,North,360,11.0,14.0,96,0.05,,---,0.81,VWS V14.01,2013-01-29 20:07:00,
2013-01-29 14:12:00,42.1,41.0,29.45,WNW,298,5.0,14.0,96,0.06,,---,0.82,VWS V14.01,2013-01-29 20:12:00,
2013-01-29 14:17:00,41.9,41.1,29.45,North,5,9.0,14.0,97,0.06,,---,0.82,VWS V14.01,2013-01-29 20:17:00,
2013-01-29 14:22:00,41.9,41.1,29.44,NNE,16,2.0,15.0,97,0.06,,---,0.82,VWS V14.01,2013-01-29 20:22:00,
2013-01-29 14:27:00,41.8,41.0,29.44,NW,317,0.0,15.0,97,0.06,,---,0.82,VWS V14.01,2013-01-29 20:27:00,
2013-01-29 14:30:00,39.2,38.2,29.48,North,350,3.0,15.0,96,0.02,,---,0.82,VWS V14.01,2013-01-29 20:30:00,
2013-01-29 14:32:00,41.9,41.1,29.44,NNW,345,9.0,15.0,97,0.06,,---,0.82,VWS V14.01,2013-01-29 20:32:00,
2013-01-29 14:37:00,41.6,40.8,29.44,NNE,13,6.0,13.0,97,0.05,,---,0.82,VWS V14.01,2013-01-29 20:37:00,
2013-01-29 14:42:00,41.8,41.0,29.44,West,274,1.0,13.0,97,0.05,,---,0.82,VWS V14.01,2013-01-29 20:42:00,
2013-01-29 14:47:00,41.3,40.2,29.44,NNW,340,6.0,13.0,96,0.05,,---,0.82,VWS V14.01,2013-01-29 20:47:00,
2013-01-29 14:52:00,40.9,39.8,29.44,North,355,1.0,14.0,96,0.05,,---,0.82,VWS V14.01,2013-01-29 20:52:00,
2013-01-29 14:57:00,40.8,39.8,29.44,North,351,12.0,17.0,96,0.05,,---,0.82,VWS V14.01,2013-01-29 20:57:00,
2013-01-29 15:00:00,38.2,37.2,29.51,NNE,13,11.0,15.0,96,0.00,,---,0.82,VWS V14.01,2013-01-29 21:00:00,
2013-01-29 15:02:00,40.5,39.5,29.44,NNE,15,3.0,17.0,96,0.05,,---,0.82,VWS V14.01,2013-01-29 21:02:00,
2013-01-29 15:07:00,40.3,39.2,29.45,ENE,57,5.0,10.0,96,0.02,,---,0.82,VWS V14.01,2013-01-29 21:07:00,
2013-01-29 15:12:00,40.1,39.0,29.45,NE,44,6.0,15.0,96,0.02,,---,0.82,VWS V14.01,2013-01-29 21:12:00,
2013-01-29 15:17:00,39.9,38.8,29.45,WNW,292,1.0,15.0,96,0.02,,---,0.82,VWS V14.01,2013-01-29 21:17:00,
2013-01-29 15:22:00,39.8,38.8,29.46,WNW,283,4.0,15.0,96,0.02,,---,0.82,VWS V14.01,2013-01-29 21:22:00,
2013-01-29 15:27:00,39.5,37.7,29.46,NNW,336,6.0,15.0,93,0.02,,---,0.82,VWS V14.01,2013-01-29 21:27:00,
2013-01-29 15:30:00,37.8,36.8,29.47,NW,308,9.0,18.0,96,0.00,,---,0.82,VWS V14.01,2013-01-29 21:30:00,
2013-01-29 15:32:00,39.3,38.3,29.46,NNW,336,10.0,15.0,96,0.02,,---,0.82,VWS V14.01,2013-01-29 21:32:00,
2013-01-29 15:37:00,39.2,38.2,29.48,NNW,334,9.0,14.0,96,0.00,,---,0.82,VWS V14.01,2013-01-29 21:37:00,
2013-01-29 15:42:00,38.8,37.8,29.48,NW,313,4.0,14.0,96,0.00,,---,0.82,VWS V14.01,2013-01-29 21:42:00,
2013-01-29 15:47:00,38.6,37.6,29.48,West,263,0.0,14.0,96,0.00,,---,0.82,VWS V14.01,2013-01-29 21:47:00,
2013-01-29 15:52:00,38.6,37.6,29.50,NW,325,7.0,15.0,96,0.00,,---,0.82,VWS V14.01,2013-01-29 21:52:00,
2013-01-29 15:57:00,38.5,37.5,29.50,North,360,7.0,15.0,96,0.00,,---,0.82,VWS V14.01,2013-01-29 21:57:00,
2013-01-29 16:00:00,37.3,36.3,29.50,North,355,1.0,14.0,96,0.00,,---,0.82,VWS V14.01,2013-01-29 22:00:00,
2013-01-29 16:02:00,38.3,37.3,29.50,West,281,0.0,15.0,96,0.00,,---,0.82,VWS V14.01,2013-01-29 22:02:00,
2013-01-29 16:07:00,38.2,37.2,29.51,NW,316,4.0,12.0,96,0.00,,---,0.82,VWS V14.01,2013-01-29 22:07:00,
2013-01-29 16:12:00,38.0,37.0,29.51,North,5,9.0,13.0,96,0.00,,---,0.82,VWS V14.01,2013-01-29 22:12:00,
2013-01-29 16:17:00,38.0,37.0,29.51,NNE,23,5.0,13.0,96,0.00,,---,0.82,VWS V14.01,2013-01-29 22:17:00,
2013-01-29 16:22:00,38.0,37.0,29.46,NNE,13,11.0,16.0,96,0.00,,---,0.82,VWS V14.01,2013-01-29 22:22:00,
2013-01-29 16:27:00,38.0,37.0,29.46,North,349,6.0,18.0,96,0.00,,---,0.82,VWS V14.01,2013-01-29 22:27:00,
2013-01-29 16:30:00,37.5,36.7,29.50,North,5,7.0,16.0,97,0.00,,---,0.82,VWS V14.01,2013-01-29 22:30:00,
2013-01-29 16:32:00,37.9,36.9,29.46,WNW,291,6.0,18.0,96,0.00,,---,0.82,VWS V14.01,2013-01-29 22:32:00,
2013-01-29 16:37:00,37.6,36.6,29.47,NW,319,6.0,13.0,96,0.00,,---,0.82,VWS V14.01,2013-01-29 22:37:00,
2013-01-29 16:42:00,37.6,36.6,29.47,NW,305,8.0,14.0,96,0.00,,---,0.82,VWS V14.01,2013-01-29 22:42:00,
2013-01-29 16:47:00,37.5,36.5,29.47,North,355,5.0,14.0,96,0.00,,---,0.82,VWS V14.01,2013-01-29 22:47:00,
2013-01-29 16:52:00,37.5,36.5,29.50,WNW,284,4.0,14.0,96,0.00,,---,0.82,VWS V14.01,2013-01-29 22:52:00,
2013-01-29 16:57:00,37.5,36.5,29.50,East,82,0.0,14.0,96,0.00,,---,0.82,VWS V14.01,2013-01-29 22:57:00,
2013-01-29 17:00:00,37.5,36.7,29.51,North,360,6.0,13.0,97,0.01,,---,0.83,VWS V14.01,2013-01-29 23:00:00,
2013-01-29 17:02:00,37.3,36.3,29.50,North,9,4.0,14.0,96,0.00,,---,0.82,VWS V14.01,2013-01-29 23:02:00,
2013-01-29 17:07:00,37.5,36.7,29.50,NNE,20,6.0,10.0,97,0.00,,---,0.82,VWS V14.01,2013-01-29 23:07:00,
2013-01-29 17:12:00,37.6,36.8,29.50,North,349,5.0,14.0,97,0.00,,---,0.82,VWS V14.01,2013-01-29 23:12:00,
2013-01-29 17:17:00,37.8,37.0,29.50,NNE,26,4.0,16.0,97,0.00,,---,0.82,VWS V14.01,2013-01-29 23:17:00,
2013-01-29 17:22:00,37.8,37.0,29.47,North,360,4.0,16.0,97,0.00,,---,0.82,VWS V14.01,2013-01-29 23:22:00,
2013-01-29 17:27:00,37.5,36.5,29.47,NW,321,3.0,16.0,96,0.00,,---,0.82,VWS V14.01,2013-01-29 23:27:00,
2013-01-29 17:30:00,37.2,36.4,29.50,NNW,341,5.0,17.0,97,0.01,,---,0.83,VWS V14.01,2013-01-29 23:30:00,
2013-01-29 17:32:00,37.5,36.7,29.47,NW,307,4.0,16.0,97,0.00,,---,0.82,VWS V14.01,2013-01-29 23:32:00,
2013-01-29 17:37:00,37.6,36.8,29.50,NW,306,0.0,7.0,97,0.00,,---,0.82,VWS V14.01,2013-01-29 23:37:00,
2013-01-29 17:42:00,37.6,36.8,29.50,NNW,339,5.0,8.0,97,0.00,,---,0.82,VWS V14.01,2013-01-29 23:42:00,
2013-01-29 17:47:00,37.5,36.7,29.50,WSW,256,0.0,9.0,97,0.00,,---,0.82,VWS V14.01,2013-01-29 23:47:00,
2013-01-29 17:52:00,37.6,36.8,29.52,North,9,4.0,13.0,97,0.00,,---,0.82,VWS V14.01,2013-01-29 23:52:00,
2013-01-29 17:57:00,37.5,36.7,29.52,NNW,344,4.0,13.0,97,0.00,,---,0.82,VWS V14.01,2013-01-29 23:57:00,
2013-01-29 18:00:00,37.0,36.2,29.48,NNE,16,3.0,17.0,97,0.02,,---,0.84,VWS V14.01,2013-01-30 00:00:00,
2013-01-29 18:02:00,37.5,36.7,29.52,NW,315,4.0,13.0,97,0.00,,---,0.82,VWS V14.01,2013-01-30 00:02:00,
2013-01-29 18:07:00,37.3,36.3,29.51,North,5,10.0,13.0,96,0.01,,---,0.83,VWS V14.01,2013-01-30 00:07:00,
2013-01-29 18:12:00,37.2,36.4,29.51,NW,324,6.0,13.0,97,0.01,,---,0.83,VWS V14.01,2013-01-30 00:12:00,
2013-01-29 18:17:00,37.2,36.4,29.51,NW,319,8.0,13.0,97,0.01,,---,0.83,VWS V14.01,2013-01-30 00:17:00,
2013-01-29 18:22:00,37.2,36.4,29.49,NNW,346,8.0,14.0,97,0.01,,---,0.83,VWS V14.01,2013-01-30 00:22:00,
2013-01-29 18:27:00,37.2,36.4,29.49,NNW,336,10.0,17.0,97,0.01,,---,0.83,VWS V14.01,2013-01-30 00:27:00,
2013-01-29 18:30:00,37.3,36.5,29.52,North,360,6.0,13.0,97,0.03,,---,0.86,VWS V14.01,2013-01-30 00:30:00,
2013-01-29 18:32:00,37.2,36.4,29.49,NW,317,8.0,17.0,97,0.01,,---,0.83,VWS V14.01,2013-01-30 00:32:00,
2013-01-29 18:37:00,37.2,36.4,29.50,North,360,3.0,7.0,97,0.01,,---,0.83,VWS V14.01,2013-01-30 00:37:00,
2013-01-29 18:42:00,37.2,36.4,29.50,NNE,22,9.0,11.0,97,0.01,,---,0.83,VWS V14.01,2013-01-30 00:42:00,
2013-01-29 18:47:00,37.2,36.4,29.50,North,349,13.0,13.0,97,0.01,,---,0.83,VWS V14.01,2013-01-30 00:47:00,
2013-01-29 18:52:00,37.2,36.4,29.48,North,360,6.0,17.0,97,0.01,,---,0.83,VWS V14.01,2013-01-30 00:52:00,
2013-01-29 18:57:00,37.2,36.4,29.48,NNE,23,10.0,17.0,97,0.02,,---,0.84,VWS V14.01,2013-01-30 00:57:00,
2013-01-29 19:00:00,37.3,36.5,29.53,NNE,16,5.0,11.0,97,0.07,,---,0.90,VWS V14.01,2013-01-30 01:00:00,
2013-01-29 19:02:00,37.0,36.2,29.48,North,349,4.0,17.0,97,0.02,,---,0.84,VWS V14.01,2013-01-30 01:02:00,
2013-01-29 19:07:00,37.0,36.2,29.48,NNW,343,7.0,13.0,97,0.01,,---,0.84,VWS V14.01,2013-01-30 01:07:00,
2013-01-29 19:12:00,37.0,36.2,29.48,NNW,348,3.0,13.0,97,0.01,,---,0.84,VWS V14.01,2013-01-30 01:12:00,
2013-01-29 19:17:00,37.2,36.4,29.48,NNW,336,3.0,13.0,97,0.01,,---,0.84,VWS V14.01,2013-01-30 01:17:00,
2013-01-29 19:22:00,37.3,36.5,29.52,North,11,4.0,13.0,97,0.02,,---,0.85,VWS V14.01,2013-01-30 01:22:00,
2013-01-29 19:27:00,37.3,36.5,29.52,North,360,3.0,13.0,97,0.03,,---,0.86,VWS V14.01,2013-01-30 01:27:00,
2013-01-29 19:30:00,37.2,36.2,29.52,NNW,346,1.0,11.0,96,0.08,,---,0.92,VWS V14.01,2013-01-30 01:30:00,
2013-01-29 19:32:00,37.3,36.5,29.52,NNW,342,4.0,13.0,97,0.03,,---,0.86,VWS V14.01,2013-01-30 01:32:00,
2013-01-29 19:37:00,37.5,36.7,29.52,North,5,6.0,9.0,97,0.03,,---,0.86,VWS V14.01,2013-01-30 01:37:00,
2013-01-29 19:42:00,37.5,36.7,29.52,NNE,21,2.0,10.0,97,0.04,,---,0.87,VWS V14.01,2013-01-30 01:42:00,
2013-01-29 19:47:00,37.3,36.3,29.52,North,5,4.0,11.0,96,0.04,,---,0.87,VWS V14.01,2013-01-30 01:47:00,
2013-01-29 19:52:00,37.3,36.5,29.51,NNW,339,5.0,11.0,97,0.05,,---,0.88,VWS V14.01,2013-01-30 01:52:00,
2013-01-29 19:57:00,37.2,36.2,29.51,NNE,19,5.0,11.0,96,0.06,,---,0.89,VWS V14.01,2013-01-30 01:57:00,
2013-01-29 20:00:00,37.0,36.0,29.50,North,5,4.0,12.0,96,0.11,,---,0.97,VWS V14.01,2013-01-30 02:00:00,
2013-01-29 20:02:00,37.3,36.5,29.51,West,269,0.0,11.0,97,0.06,,---,0.89,VWS V14.01,2013-01-30 02:02:00,
2013-01-29 20:07:00,37.3,36.5,29.53,North,9,3.0,4.0,97,0.06,,---,0.90,VWS V14.01,2013-01-30 02:07:00,
2013-01-29 20:12:00,37.3,36.3,29.53,North,5,5.0,7.0,96,0.06,,---,0.90,VWS V14.01,2013-01-30 02:12:00,
2013-01-29 20:17:00,37.5,36.7,29.53,North,355,3.0,8.0,97,0.07,,---,0.91,VWS V14.01,2013-01-30 02:17:00,
2013-01-29 20:22:00,37.5,36.7,29.53,NNE,13,3.0,9.0,97,0.08,,---,0.92,VWS V14.01,2013-01-30 02:22:00,
2013-01-29 20:27:00,37.3,36.3,29.53,NW,309,2.0,11.0,96,0.08,,---,0.92,VWS V14.01,2013-01-30 02:27:00,
2013-01-29 20:30:00,37.2,36.2,29.50,NNW,342,4.0,13.0,96,0.13,,---,1.03,VWS V14.01,2013-01-30 02:30:00,
2013-01-29 20:32:00,37.2,36.2,29.53,NW,323,2.0,11.0,96,0.08,,---,0.92,VWS V14.01,2013-01-30 02:32:00,
2013-01-29 20:37:00,37.2,36.2,29.52,North,5,4.0,10.0,96,0.06,,---,0.92,VWS V14.01,2013-01-30 02:37:00,
2013-01-29 20:42:00,37.2,36.2,29.52,North,360,4.0,11.0,96,0.08,,---,0.94,VWS V14.01,2013-01-30 02:42:00,
2013-01-29 20:47:00,37.2,36.2,29.52,North,5,7.0,11.0,96,0.09,,---,0.95,VWS V14.01,2013-01-30 02:47:00,
2013-01-29 20:52:00,37.2,36.2,29.51,NW,325,3.0,11.0,96,0.10,,---,0.96,VWS V14.01,2013-01-30 02:52:00,
2013-01-29 20:57:00,37.0,36.0,29.51,North,355,0.0,12.0,96,0.10,,---,0.96,VWS V14.01,2013-01-30 02:57:00,
2013-01-29 21:00:00,36.8,35.5,29.51,WNW,290,1.0,16.0,95,0.15,,---,1.07,VWS V14.01,2013-01-30 03:00:00,
2013-01-29 21:02:00,37.0,36.0,29.51,NNE,20,4.0,12.0,96,0.11,,---,0.97,VWS V14.01,2013-01-30 03:02:00,
2013-01-29 21:07:00,37.2,36.2,29.50,North,349,9.0,10.0,96,0.08,,---,0.98,VWS V14.01,2013-01-30 03:07:00,
2013-01-29 21:12:00,37.2,36.2,29.50,NNE,24,4.0,12.0,96,0.08,,---,0.98,VWS V14.01,2013-01-30 03:12:00,
2013-01-29 21:17:00,37.2,36.2,29.50,North,355,4.0,12.0,96,0.09,,---,0.99,VWS V14.01,2013-01-30 03:17:00,
2013-01-29 21:22:00,37.0,36.0,29.52,North,11,3.0,12.0,96,0.10,,---,1.00,VWS V14.01,2013-01-30 03:22:00,
2013-01-29 21:27:00,37.2,36.2,29.52,NNE,22,5.0,13.0,96,0.12,,---,1.02,VWS V14.01,2013-01-30 03:27:00,
2013-01-29 21:30:00,36.5,35.2,29.50,NW,320,4.0,10.0,95,0.14,,---,1.11,VWS V14.01,2013-01-30 03:30:00,
2013-01-29 21:32:00,37.2,36.2,29.52,NNE,26,3.0,13.0,96,0.13,,---,1.03,VWS V14.01,2013-01-30 03:32:00,
2013-01-29 21:37:00,37.2,36.2,29.50,NW,323,2.0,13.0,96,0.11,,---,1.03,VWS V14.01,2013-01-30 03:37:00,
2013-01-29 21:42:00,37.0,36.0,29.50,North,9,6.0,14.0,96,0.12,,---,1.04,VWS V14.01,2013-01-30 03:42:00,
2013-01-29 21:47:00,37.0,36.0,29.50,North,5,9.0,14.0,96,0.12,,---,1.04,VWS V14.01,2013-01-30 03:47:00,
2013-01-29 21:52:00,36.8,35.5,29.50,NE,42,5.0,16.0,95,0.13,,---,1.05,VWS V14.01,2013-01-30 03:52:00,
2013-01-29 21:57:00,36.8,35.5,29.50,North,5,4.0,16.0,95,0.14,,---,1.06,VWS V14.01,2013-01-30 03:57:00,
2013-01-29 22:00:00,36.5,35.2,29.48,NNE,25,3.0,12.0,95,0.09,,---,1.12,VWS V14.01,2013-01-30 04:00:00,
2013-01-29 22:02:00,36.8,35.5,29.50,NNE,15,3.0,16.0,95,0.15,,---,1.07,VWS V14.01,2013-01-30 04:02:00,
2013-01-29 22:07:00,36.6,35.3,29.51,NNE,16,2.0,7.0,95,0.11,,---,1.08,VWS V14.01,2013-01-30 04:07:00,
2013-01-29 22:12:00,36.6,35.3,29.51,NNE,20,3.0,7.0,95,0.12,,---,1.09,VWS V14.01,2013-01-30 04:12:00,
2013-01-29 22:17:00,36.6,35.3,29.51,North,355,5.0,7.0,95,0.13,,---,1.10,VWS V14.01,2013-01-30 04:17:00,
2013-01-29 22:22:00,36.8,35.8,29.52,NNW,340,0.0,9.0,96,0.13,,---,1.10,VWS V14.01,2013-01-30 04:22:00,
2013-01-29 22:27:00,36.8,35.5,29.52,NNW,341,3.0,9.0,95,0.13,,---,1.10,VWS V14.01,2013-01-30 04:27:00,
2013-01-29 22:30:00,35.5,34.0,29.43,ENE,57,0.0,9.0,94,0.05,,---,1.12,VWS V14.01,2013-01-30 04:30:00,
2013-01-29 22:32:00,36.6,35.3,29.52,North,360,5.0,9.0,95,0.14,,---,1.11,VWS V14.01,2013-01-30 04:32:00,
2013-01-29 22:37:00,36.5,35.2,29.50,WNW,293,2.0,4.0,95,0.09,,---,1.12,VWS V14.01,2013-01-30 04:37:00,
2013-01-29 22:42:00,36.5,35.2,29.50,North,349,2.0,7.0,95,0.09,,---,1.12,VWS V14.01,2013-01-30 04:42:00,
2013-01-29 22:47:00,36.6,35.6,29.50,North,360,3.0,10.0,96,0.09,,---,1.12,VWS V14.01,2013-01-30 04:47:00,
2013-01-29 22:52:00,36.6,35.3,29.47,North,5,6.0,10.0,95,0.09,,---,1.12,VWS V14.01,2013-01-30 04:52:00,
2013-01-29 22:57:00,36.6,35.3,29.47,NNE,30,6.0,10.0,95,0.09,,---,1.12,VWS V14.01,2013-01-30 04:57:00,
2013-01-29 23:00:00,36.5,35.2,29.47,NNE,32,7.0,10.0,95,0.09,,---,1.12,VWS V14.01,2013-01-30 05:00:00,
2013-01-29 23:01:00,36.5,35.2,29.47,North,355,10.0,10.0,95,0.09,,---,1.12,VWS V14.01,2013-01-30 05:01:00,
2013-01-29 23:02:00,36.5,35.2,29.47,NNE,32,3.0,12.0,95,0.09,,---,1.12,VWS V14.01,2013-01-30 05:02:00,
2013-01-29 23:03:00,36.5,35.2,29.48,NNE,31,6.0,12.0,95,0.09,,---,1.12,VWS V14.01,2013-01-30 05:03:00,
2013-01-29 23:08:00,36.3,35.0,29.48,North,10,4.0,9.0,95,0.05,,---,1.12,VWS V14.01,2013-01-30 05:08:00,
2013-01-29 23:13:00,36.3,35.0,29.48,NNE,27,6.0,9.0,95,0.05,,---,1.12,VWS V14.01,2013-01-30 05:13:00,
2013-01-29 23:18:00,36.0,34.4,29.45,NE,56,0.0,9.0,94,0.05,,---,1.12,VWS V14.01,2013-01-30 05:18:00,
2013-01-29 23:23:00,35.6,34.0,29.45,NE,52,0.0,9.0,94,0.05,,---,1.12,VWS V14.01,2013-01-30 05:23:00,
2013-01-29 23:28:00,35.5,34.0,29.45,NNE,32,0.0,9.0,94,0.05,,---,1.12,VWS V14.01,2013-01-30 05:28:00,
2013-01-29 23:30:00,35.2,33.4,29.49,NNW,345,4.0,11.0,93,0.00,,---,0.00,VWS V14.01,2013-01-30 05:30:00,
2013-01-29 23:33:00,35.5,34.0,29.43,NE,56,0.0,9.0,94,0.05,,---,1.12,VWS V14.01,2013-01-30 05:33:00,
2013-01-29 23:38:00,35.5,34.0,29.43,ENE,63,0.0,0.0,94,0.01,,---,1.12,VWS V14.01,2013-01-30 05:38:00,
2013-01-29 23:43:00,35.2,33.7,29.43,NNE,28,0.0,0.0,94,0.01,,---,1.12,VWS V14.01,2013-01-30 05:43:00,
2013-01-29 23:48:00,35.2,33.7,29.46,NNE,15,3.0,9.0,94,0.01,,---,1.12,VWS V14.01,2013-01-30 05:48:00,
2013-01-29 23:53:00,35.3,33.8,29.46,NNE,29,6.0,9.0,94,0.01,,---,1.12,VWS V14.01,2013-01-30 05:53:00,
2013-01-29 23:58:00,35.3,33.8,29.46,NE,34,3.0,10.0,94,0.01,,---,1.12,VWS V14.01,2013-01-30 05:58:00,